Weather History for Mason City, IA

Change the Weather History Date:

Sunday, June 29, 2014

  Actual Average Record
Temperature  
Mean Temperature 69 °F 72 °F  
Max Temperature 79 °F 83 °F 102 °F (1970)
Min Temperature 58 °F 60 °F 40 °F (1895)
Degree Days  
Heating Degree Days 0 0  
Month to date heating degree days 13 44  
Since 1 June heating degree days 13 44  
Since 1 July heating degree days 8623 7679  
Cooling Degree Days 4 7  
Month to date cooling degree days 132 132  
Year to date cooling degree days 185 167  
Since 1 June cooling degree days 132 132  
Growing Degree Days 18 (Base 50)    
Moisture  
Dew Point 65 °F    
Average Humidity 87    
Maximum Humidity 100    
Minimum Humidity 73    
Precipitation  
Precipitation 0.44 in 0.16 in 2.66 in (1969)
Month to date precipitation 8.21 4.97  
Year to date precipitation 22.25 17.45  
Snow  
Snow 0.00 in 0.00 in - ()
Month to date snowfall 0.0 0.0  
Since 1 June snowfall 0.0 0.0  
Since 1 July snowfall 58.0 41.2  
Snow Depth 0.00 in    
Sea Level Pressure  
Sea Level Pressure 29.81 in    
Wind  
Wind Speed 10 mph (SSW)    
Max Wind Speed 30 mph    
Max Gust Speed 39 mph    
Visibility 9 miles    
Events Rain    
T = Trace of Precipitation, MM = Missing Value Source: NWS Daily Summary

Daily Weather History Graph

Daily Weather History Graph

Search for Another Location

Airport:

Trip Planner

Search our weather history database for the weather conditions in past years. The results will help you decide how hot, cold, wet, or windy it might be!

Date:

Astronomy

Jun. 29, 2014 Rise Set
Actual Time 5:36 AM CDT 8:57 PM CDT
Civil Twilight 5:01 AM CDT 9:32 PM CDT
Nautical Twilight 4:15 AM CDT 10:18 PM CDT
Astronomical Twilight 3:18 AM CDT 11:15 PM CDT
Moon 7:59 AM CDT (6/29) 10:12 PM CDT (6/29)
Length of Visible Light 16h 31m
Length of Day
15h 20m
Waxing Crescent, 5% of the Moon is Illuminated
Jun 29
Waxing Crescent
Jul 5
First Quarter
Jul 12
Full
Jul 18
Last Quarter
Jul 26
New

Hourly Weather History & Observations

Time (CDT) Temp. Dew Point Humidity Pressure Visibility Wind Dir Wind Speed Gust Speed Precip Events Conditions
12:42 AM 66.9 °F 66.0 °F 97% 29.81 in 10.0 mi SSW 9.2 mph - N/A   Scattered Clouds
12:53 AM 66.9 °F 66.0 °F 97% 29.78 in 10.0 mi SW 11.5 mph - N/A   Partly Cloudy
1:53 AM 64.9 °F 61.0 °F 87% 29.78 in 10.0 mi WSW 12.7 mph - N/A   Mostly Cloudy
2:53 AM 63.0 °F 60.1 °F 90% 29.79 in 10.0 mi SW 9.2 mph - N/A   Clear
3:53 AM 62.1 °F 60.1 °F 93% 29.79 in 10.0 mi SSW 10.4 mph - N/A   Clear
4:53 AM 61.0 °F 59.0 °F 93% 29.78 in 10.0 mi South 5.8 mph - N/A   Clear
5:53 AM 57.9 °F 57.9 °F 100% 29.80 in 10.0 mi SSE 4.6 mph - N/A   Clear
6:53 AM 63.0 °F 61.0 °F 93% 29.83 in 10.0 mi South 3.5 mph - N/A   Partly Cloudy
7:53 AM 64.0 °F 60.1 °F 87% 29.92 in 8.0 mi West 19.6 mph - 0.03 in Rain Rain
8:53 AM 63.0 °F 59.0 °F 87% 29.84 in 2.0 mi SSE 13.8 mph - 0.10 in Rain Light Rain
9:07 AM 64.0 °F 59.0 °F 84% 29.88 in 10.0 mi South 9.2 mph - 0.01 in Rain Light Rain
9:36 AM 64.0 °F 60.1 °F 87% 29.92 in 1.5 mi West 5.8 mph - 0.09 in Rain Heavy Rain
9:53 AM 62.1 °F 60.1 °F 93% 29.87 in 3.0 mi SE 5.8 mph - 0.22 in Rain Heavy Rain
10:53 AM 70.0 °F 63.0 °F 78% 29.84 in 10.0 mi SSE 13.8 mph - 0.01 in   Mostly Cloudy
11:53 AM 73.9 °F 64.9 °F 73% 29.84 in 10.0 mi SSE 15.0 mph - N/A   Clear
12:53 PM 73.0 °F 64.0 °F 73% 29.89 in 10.0 mi SSW 18.4 mph 26.5 mph 0.00 in   Overcast
1:53 PM 75.9 °F 68.0 °F 76% 29.81 in 10.0 mi South 13.8 mph - 0.00 in   Clear
2:34 PM 72.0 °F 66.9 °F 84% 29.89 in 6.0 mi WSW 5.8 mph - 0.02 in Rain Rain
2:53 PM 72.0 °F 69.1 °F 91% 29.83 in 9.0 mi SSE 5.8 mph - 0.04 in Rain Light Rain
3:53 PM 75.9 °F 69.1 °F 79% 29.80 in 10.0 mi South 16.1 mph - 0.00 in Rain Light Rain
4:53 PM 77.0 °F 70.0 °F 79% 29.80 in 10.0 mi South 16.1 mph - 0.01 in   Partly Cloudy
5:53 PM 78.1 °F 70.0 °F 76% 29.78 in 10.0 mi South 12.7 mph - 0.00 in   Clear
6:53 PM 75.9 °F 72.0 °F 87% 29.76 in 6.0 mi South 9.2 mph - 0.03 in Rain Light Rain
7:53 PM 75.9 °F 72.0 °F 87% 29.75 in 10.0 mi SSW 5.8 mph - 0.00 in   Mostly Cloudy
8:53 PM 73.0 °F 72.0 °F 96% 29.75 in 9.0 mi South 5.8 mph - N/A   Clear
9:53 PM 70.0 °F 68.0 °F 93% 29.77 in 10.0 mi SSW 6.9 mph - N/A   Clear
10:53 PM 68.0 °F 66.9 °F 96% 29.75 in 10.0 mi SSW 4.6 mph - N/A   Mostly Cloudy
11:53 PM 66.9 °F 66.0 °F 97% 29.75 in 10.0 mi SSW 4.6 mph - N/A   Clear